Home   Weather   Rarotonga   Past weeks
Flag for Cook Islands

Past Weather in Rarotonga, Cook Islands — Yesterday and Last 2 Weeks

Now
82 °F

Partly sunny.


Feels Like: 91 °F
Forecast: 84 / 77 °F
Wind: 3 mph from South

Location: Rarotonga

Current Time: Apr 1, 2020 at 9:03:57 pm

Latest Report: Apr 1, 2020 at 7:00 pm


Visibility: N/A

Pressure: 29.77 "Hg

Humidity: 84%

Dew Point: 77 °F

Location of RarotongaLocation

Past Weather in Rarotonga — Graph

°F

Rarotonga Temperature Yesterday

Maximum temperature yesterday: 88 °F (at 1:00 pm)
Minimum temperature yesterday: 79 °F (at 12:00 am)
Average temperature yesterday: 82 °F

High & Low Weather Summary for the Past Weeks

 TemperatureHumidityPressure
High88 °F (Mar 24, 2:00 pm)100% (Mar 18, 8:00 pm)30.01 "Hg (Mar 18, 8:00 pm)
Low73 °F (Mar 18, 1:00 am)66% (Mar 22, 1:30 pm)27.22 "Hg (Mar 27, 12:00 pm)
Average80 °F85%29.87 "Hg
* Reported Mar 17 7:00 pm — Apr 1 7:00 pm, Rarotonga. Weather by CustomWeather, © 2020

Note: Actual official high and low records may vary slightly from our data, if they occured in-between our weather recording intervals... More about our weather records

Rarotonga Weather History for the Previous 24 Hours

Scroll right to see more
 ConditionsComfort  
Time TempWeatherWind HumidityBarometerVisibility
7:00 pm
Wed, Apr 1
82 °FPartly sunny.3 mph84%29.77 "HgN/A
6:00 pm84 °FBroken clouds.5 mph84%29.77 "HgN/A
5:00 pm84 °FBroken clouds.6 mph84%29.80 "HgN/A
4:00 pm84 °FBroken clouds.8 mph84%29.74 "HgN/A
3:00 pm86 °FBroken clouds.3 mph79%29.77 "HgN/A
2:00 pm84 °FScattered showers. Broken clouds.7 mph84%29.77 "HgN/A
1:00 pm82 °FBroken clouds.7 mph84%29.80 "HgN/A
12:00 pm84 °FPartly sunny.12 mph84%29.83 "HgN/A
11:00 am84 °FPartly sunny.12 mph84%29.83 "HgN/A
10:00 am82 °FPartly sunny.13 mph79%29.83 "HgN/A
9:00 am81 °FPartly sunny.10 mph89%29.83 "HgN/A
7:00 am81 °FPartly cloudy.10 mph89%29.80 "HgN/A
6:00 am81 °FPartly cloudy.10 mph94%29.80 "HgN/A
5:00 am81 °FPassing clouds.10 mph94%29.77 "HgN/A
4:00 am81 °FPassing clouds.10 mph94%29.77 "HgN/A
3:00 am82 °FPassing clouds.13 mph89%29.80 "HgN/A
2:00 am82 °FPassing clouds.14 mph89%29.80 "HgN/A
1:00 am82 °FPassing clouds.17 mph84%29.80 "HgN/A
12:00 am81 °FPassing clouds.12 mph89%29.83 "HgN/A
11:00 pm
Tue, Mar 31
81 °FSprinkles. Passing clouds.12 mph94%29.86 "HgN/A
10:00 pm79 °FPartly cloudy.8 mph94%29.86 "HgN/A
9:00 pm81 °FPartly cloudy.9 mph89%29.86 "HgN/A
Weather by CustomWeather, © 2020

See weather overview

Advertising